{"data":{"norad_id":54784,"intl_designator":"2022-175AC","name":"STARLINK-5442","alt_names":[],"object_type":"PAYLOAD","status":"ACTIVE","operator":null,"country":"US","launch_date":"2022-12-17","launch_site_code":"AFETR","launch_vehicle":null,"mission":null,"orbit_class":"UNKNOWN","rcs_meters":null,"size_class":null,"mass_kg":null,"dimensions":null,"purposes":["comms"],"wikipedia_slug":null,"has_3d_model":false,"image_url":null,"decayed_at":null,"tle_current":{"epoch":"2026-09-20T11:32:48.936480Z","epoch_age_seconds":90986,"freshness":"FRESH","line1":"1 54784U 22175AC  26263.48112195  .00001158  00000+0  45413-4 0  9990","line2":"2 54784  53.1608 237.9525 0001218  88.2592 271.8550 15.34393241209488","mean_motion":15.34393241,"eccentricity":0.0001218,"inclination_deg":53.1608,"raan_deg":237.9525,"arg_perigee_deg":88.2592,"mean_anomaly_deg":271.855,"bstar":4.5413e-5,"rev_number":20948,"period_min":93.848171480573,"perigee_km":461.89011266512,"apogee_km":463.55654624137,"semimajor_km":6840.8603294532,"source":"CELESTRAK","updated_at":"2026-09-21T09:00:33.125465Z"}}}